Weather History for McGrath, AK

Change the Weather History Date:

Monday, January 7, 2013

  Actual Average Record
Temperature  
Mean Temperature -5 °F -7 °F  
Max Temperature 5 °F - 39 °F (1973)
Min Temperature -15 °F -16 °F -58 °F (1997)
Degree Days  
Heating Degree Days 70 72  
Month to date heating degree days 373 503  
Since 1 July heating degree days 7139 6749  
Cooling Degree Days 0    
Month to date cooling degree days 0  
Year to date cooling degree days 0  
Moisture  
Dew Point -11 °F    
Average Humidity 0    
Maximum Humidity 0    
Minimum Humidity 0    
Precipitation  
Precipitation 0.00 in 0.03 in 0.12 in (1973)
Month to date precipitation 0.01 0.28  
Year to date precipitation 0.01 0.28  
Snow  
Snow 0.00 in 0.50 in 3.10 in (1943)
Month to date snowfall 0.4 4.0  
Since 1 July snowfall 34.1 55.2  
Snow Depth 26.00 in    
Sea Level Pressure  
Sea Level Pressure 29.35 in    
Wind  
Wind Speed 1 mph (West)    
Max Wind Speed 6 mph    
Max Gust Speed 7 mph    
Visibility 10 miles    
Events      
T = Trace of Precipitation, MM = Missing Value Source: NWS Daily Summary

Daily Weather History Graph

Daily Weather History Graph

Search for Another Location

Airport:

Trip Planner

Search our weather history database for the weather conditions in past years. The results will help you decide how hot, cold, wet, or windy it might be!

Date:

Astronomy

Jan. 07, 2013 Rise Set
Actual Time 10:49 AM AKST 4:08 PM AKST
Civil Twilight 9:43 AM AKST 5:14 PM AKST
Nautical Twilight 8:40 AM AKST 6:17 PM AKST
Astronomical Twilight 7:44 AM AKST 7:13 PM AKST
Moon 6:01 AM AKST (1/7) 12:48 PM AKST (1/7)
Length of Visible Light 7h 31m
Length of Day
5h 19m
Waning Crescent, 21% of the Moon is Illuminated
Jan 7
Waning Crescent
Jan 11
New
Jan 18
First Quarter
Jan 26
Full
Feb 3
Last Quarter

Hourly Weather History & Observations

Time (AKST) Temp. Windchill Dew Point Humidity Pressure Visibility Wind Dir Wind Speed Gust Speed Precip Events Conditions
12:53 AM 3.0 °F - -0.9 °F 84% 29.17 in 10.0 mi Calm Calm - N/A   Mostly Cloudy
1:53 AM 5.0 °F -2.1 °F 1.0 °F 84% 29.16 in 10.0 mi WNW 3.5 mph - N/A   Mostly Cloudy
3:53 AM 3.0 °F -6.4 °F -0.9 °F 84% 29.16 in 10.0 mi West 4.6 mph - N/A   Partly Cloudy
4:53 AM 3.9 °F -5.3 °F -0.0 °F 84% 29.17 in 10.0 mi West 4.6 mph - N/A   Overcast
5:53 AM 1.9 °F - -2.0 °F 83% 29.17 in 10.0 mi Calm Calm - N/A   Overcast
6:53 AM -0.0 °F - -4.0 °F 83% 29.19 in 10.0 mi Calm Calm - N/A   Partly Cloudy
7:53 AM -0.9 °F - -6.0 °F 79% 29.21 in 10.0 mi Calm Calm - N/A   Partly Cloudy
8:53 AM -2.9 °F - -9.0 °F 75% 29.24 in 10.0 mi Calm Calm - N/A   Partly Cloudy
9:53 AM -5.1 °F - -11.0 °F 76% 29.26 in 10.0 mi Calm Calm - N/A   Scattered Clouds
10:53 AM -9.0 °F - -14.1 °F 79% 29.28 in 10.0 mi Calm Calm - N/A   Scattered Clouds
11:53 AM -9.0 °F - -15.0 °F 75% 29.31 in 10.0 mi Calm Calm - N/A   Scattered Clouds
12:53 PM -9.0 °F - -14.1 °F 79% 29.34 in 10.0 mi Calm Calm - N/A   Scattered Clouds
1:53 PM -9.9 °F - -15.0 °F 78% 29.35 in 10.0 mi Calm Calm - N/A   Scattered Clouds
2:53 PM -9.0 °F - -14.1 °F 79% 29.38 in 10.0 mi Calm Calm - N/A   Scattered Clouds
3:53 PM -11.9 °F - -16.1 °F 82% 29.41 in 10.0 mi Calm Calm - N/A   Scattered Clouds
4:53 PM -11.0 °F - -17.0 °F 75% 29.43 in 9.0 mi Calm Calm - N/A   Clear
5:53 PM -13.0 °F - -18.9 °F 75% 29.46 in 10.0 mi Calm Calm - N/A   Clear
6:53 PM -13.0 °F - -18.9 °F 75% 29.49 in 10.0 mi Calm Calm - N/A   Mostly Cloudy
7:53 PM -13.0 °F - -18.0 °F 78% 29.52 in 10.0 mi Calm Calm - N/A   Mostly Cloudy
8:53 PM -11.0 °F - -16.1 °F 78% 29.55 in 10.0 mi Calm Calm - N/A   Overcast
9:53 PM -11.0 °F - -16.1 °F 78% 29.58 in 10.0 mi Calm Calm - N/A   Mostly Cloudy
10:53 PM -9.0 °F - -14.1 °F 79% 29.61 in 10.0 mi Calm Calm - N/A   Overcast
11:53 PM -11.0 °F - -16.1 °F 78% 29.65 in 10.0 mi Calm Calm - N/A   Partly Cloudy